EW7351 Weather Reports


time (UTC)temp
C
wind
direction
speed
KPH
gust
KPH
rain 1hr
cm
rain 24hr
cm
rain mn
cm
humidity
%
barometer
mb
20260906130842 25 123 0.0 0.0 0.00 0.00 0.00 88 1013.0
20260906130342 25 123 0.0 0.0 0.00 0.00 0.00 88 1012.8
20260906125845 25 123 0.0 0.0 0.00 0.00 0.00 88 1012.8
20260906125316 24 123 0.0 0.0 0.00 0.00 0.00 88 1012.8
20260906124812 24 123 0.0 0.0 0.00 0.00 0.00 88 1012.7
20260906124249 24 123 0.0 0.0 0.00 0.00 0.00 88 1012.7
20260906123735 24 123 0.0 0.0 0.00 0.00 0.00 88 1012.5
20260906123206 24 123 0.0 0.0 0.00 0.00 0.00 88 1012.4
20260906122925 24 123 0.0 0.0 0.00 0.00 0.00 88 1012.4
20260906122136 24 123 0.0 0.0 0.00 0.00 0.00 88 1012.5
20260906121635 24 123 0.0 0.0 0.00 0.00 0.00 87 1012.5
20260906121111 24 123 0.0 0.0 0.00 0.00 0.00 87 1012.3
20260906120540 24 123 0.0 0.0 0.00 0.00 0.00 87 1012.4
20260906120041 24 123 0.0 0.0 0.00 0.00 0.00 87 1012.3
20260906115513 24 123 0.0 0.0 0.00 0.00 0.00 87 1012.3
20260906114958 24 123 0.0 0.0 0.00 0.00 0.00 87 1012.3
20260906114728 24 123 0.0 0.0 0.00 0.00 0.00 87 1012.2
20260906113955 24 123 0.0 0.0 0.00 0.00 0.00 87 1012.3
20260906113454 24 123 0.0 0.0 0.00 0.00 0.00 87 1012.2
20260906112956 24 123 0.0 0.0 0.00 0.00 0.00 87 1012.2
20260906112453 24 123 0.0 0.0 0.00 0.00 0.00 87 1012.1
20260906111948 23 123 0.0 0.0 0.00 0.00 0.00 87 1012.0
20260906111424 24 123 0.0 0.0 0.00 0.00 0.00 86 1012.1
20260906110922 24 123 0.0 0.0 0.00 0.00 0.00 86 1012.1
20260906110410 24 123 0.0 0.0 0.00 0.00 0.00 86 1012.0
20260906105909 24 124 0.0 0.0 0.00 0.00 0.00 85 1012.0
20260906105344 24 123 0.0 0.0 0.00 0.00 0.00 86 1012.0
20260906104842 24 123 0.0 0.0 0.00 0.00 0.00 86 1011.9
20260906104342 24 123 0.0 0.0 0.00 0.00 0.00 85 1011.9
20260906104041 24 123 0.0 0.0 0.00 0.00 0.00 85 1012.0
20260906103250 24 123 0.0 0.0 0.00 0.00 0.00 85 1011.9
20260906102740 24 123 0.0 0.0 0.00 0.00 0.00 85 1011.7
20260906102234 24 123 0.0 0.0 0.00 0.00 0.00 84 1011.7
20260906101733 25 123 0.0 0.0 0.00 0.00 0.00 84 1011.6
20260906101204 25 123 0.0 0.0 0.00 0.00 0.00 84 1011.5
20260906100700 25 123 0.0 0.0 0.00 0.00 0.00 84 1011.6
20260906100200 25 123 0.0 0.0 0.00 0.00 0.00 84 1011.6
20260906095630 25 123 0.0 0.0 0.00 0.00 0.00 83 1011.6
20260906095351 25 123 0.0 0.0 0.00 0.00 0.00 83 1011.4
20260906094824 25 123 0.0 0.0 0.00 0.00 0.00 83 1011.3
20260906094707 25 123 0.0 0.0 0.00 0.00 0.00 82 1011.3
20260906093554 25 123 0.0 0.0 0.00 0.00 0.00 83 1011.2
20260906093051 25 123 0.0 0.0 0.00 0.00 0.00 83 1011.2
20260906092548 25 123 0.0 0.0 0.00 0.00 0.00 83 1011.1
20260906092047 25 123 0.0 0.0 0.00 0.00 0.00 83 1011.1
20260906091526 25 123 0.0 0.0 0.00 0.00 0.00 83 1011.1
20260906090952 25 123 0.0 0.0 0.00 0.00 0.00 82 1011.1
20260906090450 25 123 0.0 0.0 0.00 0.00 0.00 82 1011.1
20260906085922 25 123 0.0 0.0 0.00 0.00 0.00 81 1011.1
20260906085422 25 123 0.0 0.0 0.00 0.00 0.00 81 1011.0
20260906085121 25 123 0.0 0.0 0.00 0.00 0.00 81 1011.0
20260906084400 25 123 0.0 0.0 0.00 0.00 0.00 81 1010.9
20260906083837 25 123 0.0 0.0 0.00 0.00 0.00 81 1011.0
20260906083309 25 123 0.0 0.0 0.00 0.00 0.00 81 1011.0
20260906082957 25 123 0.0 0.0 0.00 0.00 0.00 81 1011.0
20260906082236 25 123 0.0 0.0 0.00 0.00 0.00 81 1011.1
20260906081938 25 123 0.0 0.0 0.00 0.00 0.00 81 1011.1
20260906081144 25 123 0.0 0.0 0.00 0.00 0.00 81 1011.2
20260906080619 25 123 0.0 0.0 0.00 0.00 0.00 80 1011.3
20260906080337 26 123 0.0 0.0 0.00 0.00 0.00 80 1011.2
20260906075616 26 123 0.0 0.0 0.00 0.00 0.00 80 1011.3
20260906075106 26 123 0.0 0.0 0.00 0.00 0.00 79 1011.2
20260906074603 26 123 0.0 0.0 0.00 0.00 0.00 79 1011.2
20260906074104 26 123 0.0 0.0 0.00 0.00 0.00 79 1011.3
20260906073828 26 123 0.0 0.0 0.00 0.00 0.00 79 1011.3
20260906073055 26 123 0.0 3.2 0.00 0.00 0.00 78 1011.3
20260906072556 26 123 0.0 3.2 0.00 0.00 0.00 78 1011.3
20260906072031 26 228 0.0 1.6 0.00 0.00 0.00 77 1011.3
20260906071506 26 228 0.0 3.2 0.00 0.00 0.00 77 1011.3
20260906071006 26 153 0.0 3.2 0.00 0.00 0.00 77 1011.3
20260906070441 26 153 0.0 4.8 0.00 0.00 0.00 77 1011.2
20260906065938 26 233 0.0 4.8 0.00 0.00 0.00 77 1011.2
20260906065437 26 190 0.0 3.2 0.00 0.00 0.00 76 1011.2
20260906064908 26 205 0.0 3.2 0.00 0.00 0.00 76 1011.2
20260906064623 26 147 1.6 4.8 0.00 0.00 0.00 76 1011.1
20260906063909 27 125 1.6 6.4 0.00 0.00 0.00 76 1011.2
20260906063348 27 131 1.6 6.4 0.00 0.00 0.00 75 1011.3
20260906063114 27 243 1.6 6.4 0.00 0.00 0.00 75 1011.3
20260906062327 27 120 3.2 9.7 0.00 0.00 0.00 75 1011.4
20260906061828 27 177 3.2 9.7 0.00 0.00 0.00 74 1011.4
20260906061305 27 210 3.2 9.7 0.00 0.00 0.00 74 1011.5
20260906060738 27 139 3.2 11.3 0.00 0.00 0.00 74 1011.6
20260906060215 27 174 1.6 8.0 0.00 0.00 0.00 73 1011.6
20260906055656 27 256 1.6 8.0 0.00 0.00 0.00 73 1011.6
20260906055154 27 123 1.6 8.0 0.00 0.00 0.00 72 1011.6
20260906054656 27 267 3.2 9.7 0.00 0.00 0.00 72 1011.7
20260906054127 27 222 1.6 9.7 0.00 0.00 0.00 71 1011.6
20260906053626 27 247 1.6 6.4 0.00 0.00 0.00 71 1011.6
20260906053126 27 209 1.6 6.4 0.00 0.00 0.00 70 1011.5
20260906052623 27 231 3.2 6.4 0.00 0.00 0.00 69 1011.5
20260906052104 28 208 3.2 8.0 0.00 0.00 0.00 69 1011.4
20260906051539 28 250 3.2 8.0 0.00 0.00 0.00 68 1011.4
20260906051038 28 150 3.2 9.7 0.00 0.00 0.00 68 1011.4
20260906050525 28 225 3.2 9.7 0.00 0.00 0.00 68 1011.5
20260906050025 28 115 3.2 9.7 0.00 0.00 0.00 67 1011.5
20260906045528 28 131 1.6 8.0 0.00 0.00 0.00 67 1011.4
20260906045011 28 251 1.6 6.4 0.00 0.00 0.00 67 1011.3
20260906044509 28 158 0.0 3.2 0.00 0.00 0.00 67 1011.2
20260906044012 28 141 1.6 6.4 0.00 0.00 0.00 67 1011.2
20260906043451 28 153 3.2 11.3 0.00 0.00 0.00 67 1011.2
20260906042949 28 183 3.2 11.3 0.00 0.00 0.00 67 1011.3
20260906042451 28 212 1.6 8.0 0.00 0.00 0.00 66 1011.4
20260906041926 28 244 3.2 11.3 0.00 0.00 0.00 66 1011.5
20260906041636 28 109 3.2 11.3 0.00 0.00 0.00 65 1011.5
20260906040921 28 212 3.2 9.7 0.00 0.00 0.00 65 1011.5
20260906040424 28 213 3.2 9.7 0.00 0.00 0.00 64 1011.5
20260906035857 29 134 3.2 9.7 0.00 0.00 0.00 64 1011.5
20260906035332 29 210 3.2 9.7 0.00 0.00 0.00 64 1011.6
20260906034825 28 124 1.6 9.7 0.00 0.00 0.00 64 1011.5
20260906034324 28 284 0.0 3.2 0.00 0.00 0.00 65 1011.4
20260906034020 29 191 0.0 1.6 0.00 0.00 0.00 65 1011.4
20260906033254 29 228 1.6 6.4 0.00 0.00 0.00 65 1011.3
20260906032749 29 164 1.6 6.4 0.00 0.00 0.00 65 1011.3
20260906032248 29 203 1.6 8.0 0.00 0.00 0.00 64 1011.4
20260906031719 29 163 3.2 8.0 0.00 0.00 0.00 64 1011.4
20260906031657 29 136 3.2 9.7 0.00 0.00 0.00 64 1011.4
20260906030713 29 139 3.2 9.7 0.00 0.00 0.00 64 1011.3
20260906030147 29 144 4.8 11.3 0.00 0.00 0.00 63 1011.3
20260906025622 29 257 4.8 11.3 0.00 0.00 0.00 64 1011.3
20260906025052 29 223 3.2 11.3 0.00 0.00 0.00 64 1011.3
20260906024547 29 204 1.6 8.0 0.00 0.00 0.00 65 1011.3
20260906024023 30 249 1.6 8.0 0.00 0.00 0.00 65 1011.2
20260906023455 30 134 3.2 11.3 0.00 0.00 0.00 65 1011.1
20260906022926 30 158 4.8 11.3 0.00 0.00 0.00 64 1011.1
20260906022423 30 144 3.2 9.7 0.00 0.00 0.00 64 1011.0
20260906022126 30 146 4.8 12.9 0.00 0.00 0.00 63 1010.9
20260906021335 30 212 4.8 16.1 0.00 0.00 0.00 63 1010.8
20260906020838 30 236 6.4 16.1 0.00 0.00 0.00 62 1010.8
20260906020312 30 155 4.8 14.5 0.00 0.00 0.00 62 1010.6
20260906015743 30 204 3.2 14.5 0.00 0.00 0.00 62 1010.5
20260906015240 30 110 4.8 14.5 0.00 0.00 0.00 62 1010.6
20260906014737 30 163 6.4 14.5 0.00 0.00 0.00 61 1010.5
20260906014235 30 110 4.8 14.5 0.00 0.00 0.00 61 1010.6
20260906013954 30 125 4.8 12.9 0.00 0.00 0.00 60 1010.5
20260906013210 30 115 6.4 12.9 0.00 0.00 0.00 59 1010.3
20260906012702 30 265 6.4 14.5 0.00 0.00 0.00 59 1010.2
20260906012136 30 128 6.4 16.1 0.00 0.00 0.00 58 1010.1
20260906011623 31 167 6.4 16.1 0.00 0.00 0.00 57 1010.1
20260906011126 31 122 6.4 19.3 0.00 0.00 0.00 56 1010.0
20260906010621 31 136 6.4 19.3 0.00 0.00 0.00 56 1010.0
20260906010120 31 248 8.0 24.1 0.00 0.00 0.00 55 1010.0
20260906005551 31 134 9.7 24.1 0.00 0.00 0.00 54 1009.9
20260906005051 31 176 8.0 20.9 0.00 0.00 0.00 53 1009.9
20260906004550 32 147 9.7 19.3 0.00 0.00 0.00 52 1010.0
20260906004051 32 108 9.7 17.7 0.00 0.00 0.00 50 1009.9
20260906004031 33 219 9.7 19.3 0.00 0.00 0.00 48 1009.9
20260906003046 33 133 9.7 19.3 0.00 0.00 0.00 46 1009.9
20260906002807 33 115 9.7 19.3 0.00 0.00 0.00 44 1009.8
20260906002046 34 119 8.0 19.3 0.00 0.00 0.00 44 1009.7
20260906001518 35 132 8.0 16.1 0.00 0.00 0.00 44 1009.6
20260906000953 35 112 8.0 19.3 0.00 0.00 0.00 43 1009.6
20260906000644 35 136 9.7 19.3 0.00 0.00 0.00 42 1009.5
20260905235922 35 136 8.0 17.7 0.00 0.00 0.00 41 1009.4
20260905235419 36 135 6.4 17.7 0.00 0.00 0.00 40 1009.4
20260905235142 37 144 3.2 9.7 0.00 0.00 0.00 37 1009.3
20260905234612 37 123 0.0 4.8 0.00 0.00 0.00 35 1009.2
20260905234053 37 136 0.0 4.8 0.00 0.00 0.00 35 1009.2
20260905233553 37 238 1.6 6.4 0.00 0.00 0.00 35 1009.1
20260905232833 37 155 1.6 6.4 0.00 0.00 0.00 35 1009.1
20260905232329 37 110 0.0 6.4 0.00 0.00 0.00 35 1009.1
20260905231803 37 115 1.6 4.8 0.00 0.00 0.00 36 1009.2
20260905231253 37 146 3.2 8.0 0.00 0.00 0.00 35 1009.3
20260905230751 37 131 3.2 9.7 0.00 0.00 0.00 35 1009.3
20260905230250 37 129 3.2 9.7 0.00 0.00 0.00 34 1009.3
20260905225725 37 146 3.2 11.3 0.00 0.00 0.00 35 1009.2
20260905225227 37 85 3.2 11.3 0.00 0.00 0.00 35 1009.2
20260905224725 37 256 1.6 9.7 0.00 0.00 0.00 34 1009.2
20260905224225 38 243 1.6 6.4 0.00 0.00 0.00 34 1009.2
20260905223719 38 152 0.0 6.4 0.00 0.00 0.00 33 1009.1
20260905223219 37 80 0.0 1.6 0.00 0.00 0.00 35 1009.1
20260905222718 37 95 1.6 12.9 0.00 0.00 0.00 36 1009.2
20260905222218 37 245 3.2 12.9 0.00 0.00 0.00 35 1009.2
20260905221945 37 228 4.8 11.3 0.00 0.00 0.00 36 1009.1
20260905221220 37 120 3.2 14.5 0.00 0.00 0.00 35 1009.1
20260905220704 37 105 3.2 14.5 0.00 0.00 0.00 34 1009.2
20260905220202 37 89 4.8 9.7 0.00 0.00 0.00 35 1009.3
20260905215700 37 214 3.2 11.3 0.00 0.00 0.00 35 1009.3
20260905215143 38 123 4.8 12.9 0.00 0.00 0.00 34 1009.4
20260905214846 38 143 4.8 17.7 0.00 0.00 0.00 33 1009.4
20260905214109 38 119 1.6 17.7 0.00 0.00 0.00 33 1009.4
20260905213823 38 106 0.0 9.7 0.00 0.00 0.00 34 1009.4
20260905213106 38 160 1.6 9.7 0.00 0.00 0.00 36 1009.5
20260905212605 37 159 3.2 9.7 0.00 0.00 0.00 34 1009.6
20260905212103 37 124 3.2 9.7 0.00 0.00 0.00 34 1009.6
20260905211540 37 113 3.2 11.3 0.00 0.00 0.00 37 1009.6
20260905211016 36 88 3.2 9.7 0.00 0.00 0.00 37 1009.7
20260905210515 37 4 3.2 9.7 0.00 0.00 0.00 35 1009.9
20260905205959 37 134 1.6 8.0 0.00 0.00 0.00 35 1009.9
20260905205456 37 347 1.6 11.3 0.00 0.00 0.00 35 1010.0
20260905204959 37 108 1.6 11.3 0.00 0.00 0.00 35 1010.1
20260905204434 37 17 3.2 8.0 0.00 0.00 0.00 36 1010.2
20260905203907 37 127 4.8 14.5 0.00 0.00 0.00 36 1010.2
20260905203635 37 185 3.2 14.5 0.00 0.00 0.00 36 1010.3
20260905202844 37 136 1.6 9.7 0.00 0.00 0.00 37 1010.3
20260905202351 37 325 3.2 9.7 0.00 0.00 0.00 34 1010.5
20260905201827 37 107 3.2 12.9 0.00 0.00 0.00 35 1010.5
20260905201326 37 243 4.8 12.9 0.00 0.00 0.00 36 1010.5
20260905201044 38 205 1.6 9.7 0.00 0.00 0.00 33 1010.6
20260905200327 38 115 1.6 6.4 0.00 0.00 0.00 34 1010.7
20260905195813 37 114 1.6 6.4 0.00 0.00 0.00 36 1010.7
20260905195300 37 137 3.2 8.0 0.00 0.00 0.00 36 1010.8
20260905194800 37 75 3.2 9.7 0.00 0.00 0.00 35 1010.9
20260905194257 37 214 3.2 11.3 0.00 0.00 0.00 36 1010.9
20260905194023 37 128 3.2 11.3 0.00 0.00 0.00 34 1011.0
20260905193230 37 129 1.6 9.7 0.00 0.00 0.00 35 1011.1
20260905192732 36 146 1.6 11.3 0.00 0.00 0.00 36 1011.2
20260905192209 36 52 3.2 11.3 0.00 0.00 0.00 37 1011.3
20260905191710 36 127 4.8 12.9 0.00 0.00 0.00 39 1011.4
20260905191416 36 220 3.2 12.9 0.00 0.00 0.00 37 1011.5
20260905190642 37 125 1.6 9.7 0.00 0.00 0.00 38 1011.7
20260905185612 36 186 1.6 8.0 0.00 0.00 0.00 37 1012.0
20260905185049 36 91 3.2 12.9 0.00 0.00 0.00 40 1012.1
20260905184538 36 136 4.8 12.9 0.00 0.00 0.00 40 1012.2
20260905184040 36 153 4.8 12.9 0.00 0.00 0.00 40 1012.2
20260905183753 36 165 4.8 12.9 0.00 0.00 0.00 39 1012.3
20260905183004 36 217 3.2 12.9 0.00 0.00 0.00 40 1012.3
20260905182505 36 124 3.2 8.0 0.00 0.00 0.00 39 1012.5
20260905182007 36 200 3.2 12.9 0.00 0.00 0.00 39 1012.6
20260905181724 36 124 3.2 12.9 0.00 0.00 0.00 38 1012.6
20260905181004 36 261 3.2 12.9 0.00 0.00 0.00 38 1012.6
20260905180436 36 118 3.2 12.9 0.00 0.00 0.00 38 1012.8
20260905175912 36 127 3.2 9.7 0.00 0.00 0.00 39 1012.9
20260905175344 36 51 3.2 12.9 0.00 0.00 0.00 39 1012.9
20260905174818 36 143 3.2 12.9 0.00 0.00 0.00 40 1013.0
20260905174251 36 129 3.2 11.3 0.00 0.00 0.00 41 1013.1
20260905173746 36 231 3.2 11.3 0.00 0.00 0.00 39 1013.1
20260905173443 36 141 3.2 9.7 0.00 0.00 0.00 40 1013.1
20260905172715 36 142 3.2 11.3 0.00 0.00 0.00 41 1013.2
20260905172150 35 129 4.8 12.9 0.00 0.00 0.00 41 1013.2
20260905171648 35 137 1.6 12.9 0.00 0.00 0.00 41 1013.3
20260905171133 35 90 1.6 11.3 0.00 0.00 0.00 41 1013.3
20260905170604 35 114 3.2 14.5 0.00 0.00 0.00 42 1013.4
20260905170105 35 130 4.8 14.5 0.00 0.00 0.00 43 1013.4
20260905170028 35 155 4.8 12.9 0.00 0.00 0.00 43 1013.4
20260905165044 35 236 1.6 12.9 0.00 0.00 0.00 44 1013.4
20260905164542 36 142 0.0 12.9 0.00 0.00 0.00 43 1013.4
20260905164306 35 213 0.0 8.0 0.00 0.00 0.00 45 1013.5
20260905163514 35 281 1.6 8.0 0.00 0.00 0.00 46 1013.5
20260905163005 35 278 0.0 4.8 0.00 0.00 0.00 46 1013.5
20260905162503 35 25 0.0 4.8 0.00 0.00 0.00 44 1013.5
20260905161936 35 285 0.0 4.8 0.00 0.00 0.00 46 1013.4
20260905161408 35 34 0.0 4.8 0.00 0.00 0.00 48 1013.5
20260905160907 34 239 0.0 4.8 0.00 0.00 0.00 47 1013.5
20260905160339 34 72 0.0 3.2 0.00 0.00 0.00 48 1013.5
20260905155836 33 345 0.0 3.2 0.00 0.00 0.00 49 1013.5
20260905155556 33 357 0.0 6.4 0.00 0.00 0.00 48 1013.5
20260905154809 33 129 1.6 6.4 0.00 0.00 0.00 51 1013.5
20260905154241 33 207 1.6 8.0 0.00 0.00 0.00 50 1013.5
20260905153718 33 265 0.0 8.0 0.00 0.00 0.00 51 1013.5
20260905153412 33 261 0.0 4.8 0.00 0.00 0.00 50 1013.5
20260905152621 33 255 0.0 4.8 0.00 0.00 0.00 51 1013.6
20260905152115 33 19 0.0 3.2 0.00 0.00 0.00 54 1013.5
20260905151808 32 277 1.6 8.0 0.00 0.00 0.00 54 1013.5
20260905151018 32 146 3.2 8.0 0.00 0.00 0.00 55 1013.3
20260905150453 32 237 3.2 8.0 0.00 0.00 0.00 56 1013.3
20260905145952 31 198 1.6 8.0 0.00 0.00 0.00 56 1013.2
20260905145444 31 243 1.6 8.0 0.00 0.00 0.00 56 1013.2
20260905144940 31 188 1.6 6.4 0.00 0.00 0.00 58 1013.2
20260905144439 31 250 0.0 6.4 0.00 0.00 0.00 59 1013.2
20260905143912 31 230 1.6 6.4 0.00 0.00 0.00 60 1013.2
20260905143346 30 250 1.6 8.0 0.00 0.00 0.00 61 1013.2
20260905142821 30 269 1.6 8.0 0.00 0.00 0.00 60 1013.3
20260905142320 30 316 1.6 9.7 0.00 0.00 0.00 63 1013.3
20260905141822 30 217 0.0 9.7 0.00 0.00 0.00 62 1013.3
20260905141545 30 228 0.0 4.8 0.00 0.00 0.00 63 1013.3
20260905140813 30 257 1.6 6.4 0.00 0.00 0.00 63 1013.3
20260905140512 29 136 1.6 6.4 0.00 0.00 0.00 64 1013.3
20260905135720 29 237 0.0 6.4 0.00 0.00 0.00 64 1013.3
20260905135219 28 154 0.0 4.8 0.00 0.00 0.00 67 1013.3
20260905134650 28 124 1.6 4.8 0.00 0.00 0.00 68 1013.2
20260905134149 28 218 0.0 4.8 0.00 0.00 0.00 69 1013.1
20260905133642 27 155 0.0 3.2 0.00 0.00 0.00 70 1013.1
20260905133404 27 129 0.0 0.0 0.00 0.00 0.00 71 1013.1
20260905132832 27 154 0.0 0.0 0.00 0.00 0.00 71 1013.1
20260905132111 27 244 0.0 0.0 0.00 0.00 0.00 72 1013.0
20260905131542 27 244 0.0 0.0 0.00 0.00 0.00 72 1013.1
20260905131042 26 229 0.0 0.0 0.00 0.00 0.00 73 1013.0